Wind_Speed
9 9 9 9 9 9 9 9 9 8 7 7 7 7 7 7 5 4 5 6 8 11 11 11 8 4 8 9 9 10 13 14 14 15 16 17 16 16 17 19 20 20 19 19 18 18 18 17 16 15 15 16 16 16 16 16 16 16 16 17 17 18 20 22 24 26 28 30 32 33 35 36 37 36
10 10 9 9 9 9 9 9 9 8 7 8 8 8 8 8 7 7 6 6 8 11 11 13 10 4 6 9 10 11 12 14 14 15 16 17 17 17 18 20 21 21 22 20 18 18 18 19 18 17 17 18 18 19 20 19 19 19 18 18 18 18 19 20 21 23 25 28 30 32 34 36 37 38
11 11 10 10 10 10 10 10 9 9 8 9 9 8 9 9 9 9 8 6 7 10 12 14 14 11 11 12 12 12 12 13 14 15 16 17 18 18 19 21 22 23 22 20 18 17 17 18 19 19 19 20 21 22 23 23 22 21 20 19 19 19 20 21 22 23 24 26 28 30 32 34 36 38
11 11 11 11 11 11 11 11 9 9 9 10 10 9 9 10 9 9 9 7 8 11 12 13 14 14 14 14 13 13 13 13 14 15 17 17 17 18 18 19 21 23 22 21 21 21 19 19 20 21 22 23 23 23 22 23 24 23 22 22 22 22 22 23 24 25 26 27 28 30 32 33 35 37
12 11 12 12 13 12 12 11 10 10 11 11 11 10 10 11 10 9 9 9 10 12 12 12 13 13 14 15 14 14 14 14 14 15 16 17 17 18 18 19 20 22 23 23 23 22 21 21 22 23 24 24 24 23 24 25 25 25 25 25 25 25 25 26 27 28 29 30 30 31 32 34 35 36
13 12 13 14 13 12 12 11 11 11 12 12 10 9 9 11 10 9 10 11 12 12 12 12 13 13 14 15 15 14 15 16 16 16 17 17 17 18 19 20 20 20 21 20 20 21 22 23 25 26 26 25 25 26 27 28 28 27 27 27 28 29 29 29 30 30 31 32 32 33 34 35 36 37
13 14 15 14 13 12 11 12 12 13 13 11 10 10 11 12 12 11 11 12 13 14 14 14 14 13 14 15 15 15 16 17 17 18 19 18 17 17 18 20 20 20 20 19 20 23 25 27 28 28 28 27 27 28 29 29 29 29 29 29 30 32 33 33 33 32 33 33 34 36 36 36 37 38
14 14 15 14 13 12 12 13 13 13 12 11 10 12 13 12 11 11 11 13 15 16 17 17 14 14 16 17 16 16 17 17 18 20 20 18 17 18 19 19 20 21 22 23 24 26 27 28 29 29 30 29 29 30 30 29 29 30 31 32 32 33 34 36 36 35 35 35 34 36 37 38 39 39
14 14 14 14 13 12 13 14 14 13 13 11 11 12 12 10 11 13 14 15 17 18 20 18 16 17 18 18 17 17 17 18 19 19 20 20 19 19 19 19 20 20 21 23 24 25 27 28 29 30 30 31 31 32 31 31 31 32 33 34 35 36 36 36 36 36 36 36 35 35 36 37 39 40
15 14 15 15 14 12 13 14 15 15 14 12 11 12 11 11 12 14 15 15 16 18 18 17 18 20 19 17 16 16 16 18 19 20 20 20 19 19 18 18 18 19 20 21 22 23 25 26 27 29 30 31 32 33 33 33 33 34 36 37 37 37 36 34 33 33 34 35 34 34 34 35 36 39
15 15 16 16 15 13 14 15 16 16 15 13 13 14 14 14 14 13 12 14 15 16 16 16 18 19 17 16 16 17 16 18 19 20 20 19 19 19 18 18 18 20 21 22 23 24 25 27 28 29 30 31 32 32 33 34 35 36 37 37 37 37 35 33 31 30 30 31 32 33 35 35 36 37
15 16 16 16 15 13 13 14 14 15 14 13 15 16 16 17 16 15 16 16 16 15 16 17 18 18 17 16 16 16 16 17 18 19 19 19 20 20 19 19 20 22 22 22 23 24 25 26 27 27 28 29 29 30 32 34 35 37 36 35 35 35 35 34 32 31 31 33 34 36 38 39 39 38
16 17 16 14 14 14 15 16 16 15 13 13 13 15 17 19 18 18 19 18 17 16 16 17 18 18 17 17 15 15 15 17 18 20 20 20 20 20 20 20 20 21 22 23 23 23 23 25 26 26 27 27 28 29 31 32 32 33 32 31 30 30 30 31 31 32 34 37 39 39 40 41 42 41
17 17 16 14 13 15 17 18 19 18 17 17 16 16 18 21 21 20 20 18 17 17 17 17 18 17 18 18 17 16 17 19 21 21 21 20 20 19 20 19 19 19 20 21 22 22 23 25 27 28 27 27 28 29 29 28 29 29 29 30 29 29 30 32 34 36 38 40 43 44 44 43 43 43
17 16 14 12 13 16 18 17 17 18 18 17 17 17 19 21 22 22 22 20 19 18 18 19 19 18 19 20 19 18 19 20 20 20 19 19 19 18 17 16 17 17 17 20 23 24 24 25 27 29 28 28 28 28 28 28 30 33 35 34 32 31 33 35 37 39 42 45 46 46 46 44 43 43
17 16 15 12 12 15 17 16 15 16 16 16 17 17 18 20 22 23 23 23 21 21 20 20 21 22 21 21 20 18 18 18 19 19 18 18 18 18 17 17 18 18 18 21 24 26 26 26 28 29 30 29 29 29 30 30 32 35 35 34 32 33 36 40 43 45 47 48 48 47 47 45 44 44
18 17 16 15 13 13 13 13 12 12 13 15 16 16 16 18 21 24 26 26 26 25 23 22 23 23 20 20 19 18 18 18 18 19 19 18 18 19 19 20 22 22 21 23 25 26 26 26 27 28 29 30 31 31 30 32 34 35 35 34 36 39 42 45 48 49 49 49 48 47 47 47 46 46
18 17 16 14 14 12 12 12 10 10 11 13 14 14 16 18 20 23 27 29 27 27 27 26 24 21 17 17 18 17 16 17 18 19 19 19 19 21 22 23 26 25 23 23 24 24 24 25 27 28 29 30 32 32 32 34 35 35 36 37 39 42 46 48 49 50 49 48 47 47 47 48 48 48
16 14 13 11 10 10 10 11 11 11 12 13 13 14 17 19 20 22 25 26 24 23 24 25 23 20 17 16 16 16 17 18 18 18 19 20 22 23 23 24 25 24 22 22 22 22 24 26 28 30 31 32 32 32 33 35 36 35 36 38 40 44 47 48 50 50 48 47 47 48 48 48 49 49
13 13 13 12 13 14 14 15 15 13 13 13 12 14 17 19 21 22 22 22 21 21 21 21 21 21 20 19 20 21 21 20 19 17 18 20 21 21 22 22 23 23 22 23 24 25 26 27 28 30 32 32 33 34 35 34 33 34 35 38 41 45 47 48 49 48 46 44 44 46 47 48 49 50
16 17 16 14 14 15 16 18 18 14 13 13 14 16 18 18 19 20 19 20 21 20 20 20 21 20 20 20 21 22 20 19 19 18 17 18 19 21 19 18 21 23 23 24 26 26 26 25 26 29 31 31 33 34 33 31 31 33 37 40 43 44 46 47 48 47 45 43 42 44 45 47 48 48
19 16 14 12 13 14 16 18 16 13 13 14 15 15 16 17 19 19 18 17 16 15 14 15 15 16 18 20 20 20 19 19 18 19 21 21 20 19 18 18 21 23 24 25 24 23 24 24 24 28 30 29 30 30 30 31 34 36 38 40 43 44 46 47 47 46 45 45 44 44 44 44 45 45
16 13 11 12 14 15 16 16 14 13 13 14 14 14 16 18 17 15 13 12 12 12 13 13 14 15 16 18 19 19 20 20 20 23 26 26 22 20 20 22 21 17 19 22 20 20 24 25 25 26 23 19 21 27 30 32 34 36 39 41 44 47 47 46 45 45 44 45 45 45 43 40 40 43
11 11 10 10 11 12 14 15 14 13 13 14 14 13 15 17 16 14 12 12 12 13 14 14 15 15 15 16 17 18 19 20 21 21 23 23 22 21 22 23 20 17 19 21 21 21 24 25 25 26 22 16 18 26 32 34 35 37 41 42 44 48 46 41 39 38 37 38 37 37 37 37 38 41
9 10 11 10 11 12 13 14 13 12 13 15 15 13 14 17 17 16 15 13 13 14 13 13 14 15 16 16 17 18 19 19 18 17 17 18 19 19 21 22 22 23 24 24 23 23 23 25 25 26 26 23 22 26 33 38 39 40 41 40 41 43 39 34 34 35 36 37 35 32 33 34 37 41
11 10 12 14 14 13 12 12 12 12 14 15 14 14 16 17 16 16 14 12 11 12 12 13 15 15 16 17 17 18 18 17 16 15 15 17 18 20 22 22 22 24 25 25 25 24 24 25 25 25 25 25 25 27 29 34 40 42 40 38 38 39 36 34 37 40 39 39 37 34 32 32 34 39
10 9 11 15 15 13 11 11 11 12 13 14 14 14 13 13 13 13 12 10 11 11 12 14 15 15 16 17 17 17 16 15 15 15 17 20 21 21 21 21 22 24 26 26 26 25 24 25 27 28 28 28 27 24 23 27 37 41 40 38 38 36 34 33 34 36 36 33 31 31 30 30 31 37
11 11 12 13 13 12 10 11 11 11 11 11 11 11 11 12 12 11 9 10 12 12 13 13 15 15 16 15 15 15 14 15 16 18 19 19 19 19 19 20 22 23 24 24 24 24 23 25 29 30 30 29 24 20 19 25 34 38 37 36 37 34 30 30 30 30 30 29 28 28 29 29 30 35
11 13 14 13 12 10 10 10 10 8 8 7 8 10 12 12 11 10 10 11 11 12 12 12 14 14 13 13 14 14 15 17 17 18 17 17 17 18 19 20 20 21 21 21 22 22 22 24 26 27 27 26 24 23 25 28 34 38 35 31 33 35 32 30 29 29 30 30 29 29 29 29 31 35
12 12 13 13 11 9 9 8 7 6 7 8 9 10 10 9 9 10 10 10 10 10 12 12 13 13 13 14 15 16 16 16 16 15 16 16 17 17 17 18 19 19 19 19 20 21 21 21 23 24 26 27 26 29 32 32 33 38 36 29 29 32 31 31 29 28 30 31 31 31 29 26 28 31
11 10 11 10 8 8 7 7 7 9 11 11 9 8 8 9 9 9 10 10 10 11 12 12 12 13 14 15 16 15 15 14 14 14 15 16 17 17 17 18 19 19 19 20 20 20 19 19 22 24 27 27 27 32 37 35 32 34 34 29 27 26 27 31 31 29 29 29 30 31 26 24 26 26
10 10 10 9 7 7 7 9 10 11 13 13 10 8 9 10 10 12 12 12 12 11 11 11 12 14 14 14 14 14 14 14 14 14 14 16 17 17 17 17 17 18 20 21 21 20 18 18 21 25 26 27 29 33 37 36 32 29 29 29 28 26 26 29 29 29 29 27 27 25 20 24 25 24
11 10 9 8 8 9 9 10 11 13 14 14 11 9 8 8 11 12 12 12 11 10 10 11 13 14 13 13 13 13 13 14 13 14 15 16 16 17 16 16 16 18 19 21 21 20 18 19 22 26 29 30 31 31 31 29 28 28 27 28 28 27 26 28 28 28 28 25 23 20 18 23 24 22
8 8 8 8 8 9 9 11 11 11 10 9 9 10 10 11 11 12 12 11 9 8 10 12 13 13 12 12 12 13 13 14 14 15 15 16 16 16 15 15 17 18 18 20 21 20 20 21 23 26 30 32 32 30 24 21 23 27 28 28 29 29 28 28 29 28 26 25 24 21 18 21 23 23
7 8 9 9 8 8 10 11 11 11 10 10 10 11 12 12 12 12 10 8 7 9 12 13 12 11 11 12 12 13 13 14 15 15 15 15 15 15 15 16 17 18 19 19 19 19 20 21 22 23 26 27 27 27 24 22 22 26 28 29 31 33 32 31 30 29 27 27 24 18 15 15 19 23
7 8 9 9 8 9 11 11 10 10 10 10 11 13 12 12 11 10 7 6 8 11 12 11 11 11 11 11 12 13 13 14 14 14 15 15 15 15 15 16 17 18 19 19 18 18 20 21 20 17 16 15 14 14 20 27 26 24 25 28 30 32 33 33 32 29 27 27 23 17 15 12 15 21
7 8 10 12 11 10 11 11 10 9 9 10 12 12 10 11 12 10 8 8 10 11 10 10 10 11 10 11 12 13 13 13 14 14 15 15 15 15 16 16 17 18 19 20 19 18 17 16 17 15 12 11 10 9 16 28 31 26 26 28 29 31 33 32 31 29 27 26 23 19 17 18 19 20
7 8 12 14 12 10 10 11 10 9 10 12 14 11 9 10 12 10 9 10 10 10 9 10 10 10 10 11 12 13 13 13 14 14 14 14 15 15 16 17 17 18 19 20 20 19 15 13 16 17 13 10 9 9 13 21 27 28 28 28 28 32 34 31 28 28 28 27 26 24 22 22 24 24
9 10 11 12 10 8 9 9 9 10 11 13 13 11 10 11 11 11 11 11 9 9 9 10 10 10 10 11 12 12 13 13 14 14 14 14 15 16 16 17 18 19 19 19 19 19 16 14 16 20 19 14 13 16 18 19 23 26 27 27 29 33 34 31 29 27 25 27 30 30 28 24 21 23
9 10 10 9 8 7 8 8 9 11 13 12 10 9 11 12 12 12 11 10 8 8 9 10 10 10 10 11 11 12 13 13 13 14 14 15 15 16 16 17 18 19 18 18 19 18 17 16 17 21 22 20 20 23 24 21 20 23 26 28 32 33 32 30 29 27 26 28 30 27 25 23 21 18
8 8 7 8 8 8 8 9 10 12 13 12 9 8 11 12 12 12 11 10 9 9 10 10 10 9 10 10 11 11 13 13 14 14 14 15 16 16 17 17 18 17 17 18 18 18 17 18 20 22 21 20 21 22 18 13 14 20 26 30 33 35 33 29 27 25 26 28 29 24 19 19 21 18
8 8 7 7 8 8 8 10 11 11 11 11 10 10 11 11 11 11 11 11 11 10 10 10 9 9 10 10 10 12 13 13 14 14 15 15 16 16 16 17 16 16 18 17 17 18 17 17 20 22 20 19 19 17 12 10 13 19 25 29 32 35 34 31 28 25 25 27 28 25 19 15 14 12
7 8 8 8 8 9 9 10 11 11 10 10 11 12 12 12 12 11 10 9 9 8 8 9 8 8 10 10 10 12 13 13 14 15 15 16 16 15 16 17 16 17 18 17 17 18 18 16 18 20 19 17 17 15 13 13 16 21 25 27 30 34 35 33 30 27 27 28 28 27 22 16 10 9
8 8 9 9 10 10 10 10 10 10 10 11 11 12 11 11 11 10 9 8 8 8 8 8 8 8 9 10 10 12 12 12 14 15 15 15 15 15 16 16 16 16 17 17 18 19 18 15 15 15 14 13 15 16 16 15 17 21 25 25 28 32 35 34 32 29 29 32 32 30 28 26 22 13
9 9 9 9 9 9 9 10 10 10 11 11 10 10 11 10 10 9 9 8 7 7 7 8 8 8 9 10 11 12 12 13 14 15 15 15 15 15 15 16 16 16 16 16 18 18 17 16 15 13 12 12 14 15 17 17 16 19 23 24 28 32 32 31 30 28 28 32 36 32 29 31 34 32
Wind_Direction
257 259 257 253 255 262 264 265 267 266 269 270 271 275 274 277 285 290 296 297 299 303 299 298 297 244 220 235 252 260 257 258 257 255 261 264 264 267 267 268 271 273 277 280 275 270 268 270 275 283 293 298 302 305 306 306 307 306 302 298 295 292 289 287 285 282 279 276 272 267 262 258 256 256
257 260 261 259 256 253 252 256 261 261 263 263 265 272 273 275 280 286 294 291 292 301 301 299 299 265 236 254 266 266 263 268 263 253 257 263 263 264 266 267 268 269 274 277 273 269 268 268 270 277 286 293 297 299 301 301 302 304 302 298 296 295 295 294 291 288 285 282 279 275 270 264 259 256
251 251 253 257 258 258 256 256 261 263 264 265 265 266 266 269 270 276 284 286 290 299 302 302 301 291 281 277 275 273 272 274 266 256 259 263 263 265 267 267 267 269 274 274 270 269 271 270 270 274 282 289 293 295 296 297 296 297 299 298 296 295 295 296 296 294 291 287 283 280 276 271 265 260
255 253 252 253 254 256 257 257 261 265 265 265 265 264 268 273 274 275 278 280 288 294 296 299 298 293 291 287 279 272 269 269 264 261 263 263 263 266 267 267 267 269 273 272 269 268 269 270 272 276 281 287 291 292 293 294 293 292 292 294 295 295 295 296 297 295 293 291 288 283 279 274 270 266
254 252 248 249 251 253 259 261 261 262 262 260 257 257 266 274 277 278 277 279 284 289 290 290 290 290 290 288 282 273 270 270 267 263 264 265 267 269 269 270 270 268 269 271 269 268 266 267 272 277 282 286 289 290 292 294 292 288 287 288 290 292 292 294 296 295 292 290 289 287 283 277 272 268
243 247 246 248 249 250 256 259 259 258 257 259 262 265 268 273 277 278 276 277 279 284 288 287 286 287 285 283 282 282 282 281 278 272 270 271 272 271 271 272 273 273 273 272 271 271 269 268 270 275 280 283 285 287 290 291 289 286 285 285 286 288 288 289 291 293 292 289 287 287 285 281 275 270
236 240 243 246 246 248 250 250 249 248 250 259 271 274 273 277 283 285 280 278 279 284 287 284 283 286 287 285 284 286 287 287 286 284 280 276 272 272 273 272 273 277 278 277 275 274 273 271 272 274 277 278 280 284 286 286 285 283 283 283 284 286 286 286 286 288 290 288 286 285 284 282 278 273
236 237 243 246 246 246 249 250 246 241 244 254 260 265 270 273 279 287 293 294 290 286 283 280 280 284 286 286 286 288 289 290 291 289 287 282 275 275 276 275 275 275 274 274 273 272 270 271 272 274 275 275 277 281 282 281 281 280 280 281 282 284 285 284 283 283 285 286 286 285 283 281 278 275
239 240 245 250 249 248 251 255 255 252 254 258 260 267 270 263 265 275 284 290 286 277 277 281 285 285 283 283 285 287 289 290 292 292 291 289 285 281 280 278 278 278 276 275 275 272 269 268 270 273 275 275 276 278 278 279 280 280 280 281 281 282 283 283 282 281 281 282 284 285 284 282 279 276
242 244 249 254 254 252 256 261 265 266 267 269 273 280 282 278 281 281 277 278 276 271 275 281 280 277 277 281 285 287 289 290 290 292 292 292 290 287 282 278 278 280 279 276 275 272 270 269 271 274 276 276 276 275 276 277 279 280 281 282 281 280 279 278 279 280 280 280 281 282 283 283 282 278
242 246 249 253 253 254 260 266 271 275 276 277 278 280 281 283 285 282 276 274 274 276 281 282 277 274 278 285 288 291 294 292 287 288 290 293 293 291 286 283 283 282 280 277 273 271 271 274 275 275 276 277 276 275 276 277 278 279 280 280 279 276 273 273 276 277 277 278 277 278 281 281 280 279
244 248 251 254 258 259 262 267 273 277 274 272 274 273 274 280 283 282 282 280 280 284 288 285 281 282 285 285 286 291 292 287 284 288 292 294 295 293 291 290 288 285 281 277 276 275 276 279 279 278 279 280 278 279 280 280 280 279 277 276 276 275 272 271 273 276 278 279 278 278 279 279 277 277
246 252 254 257 260 261 263 267 272 276 273 271 274 274 276 280 279 278 279 279 282 287 287 285 284 285 285 283 284 288 287 284 286 291 294 294 293 294 294 291 287 283 281 279 277 278 279 281 281 279 279 278 278 280 282 282 280 279 277 276 276 277 277 276 277 280 281 281 280 279 278 277 274 273
249 252 253 258 263 266 270 273 274 276 277 275 274 273 276 277 275 275 274 272 277 284 283 281 282 282 282 283 285 287 287 287 289 292 295 295 296 297 295 292 288 284 283 282 281 281 282 282 281 280 279 279 279 279 279 280 279 280 279 278 276 279 284 287 286 284 282 280 281 280 277 274 272 271
250 252 255 264 268 268 272 274 272 272 272 272 271 271 272 272 271 273 271 268 272 278 278 278 279 278 279 283 285 285 285 288 291 295 297 296 296 297 294 293 293 290 288 289 288 287 286 283 281 281 281 280 279 278 279 280 279 279 275 271 271 277 284 288 287 285 283 281 280 279 275 271 270 269
246 249 253 258 259 265 272 270 264 263 261 261 267 270 269 268 266 265 263 263 268 273 276 279 279 276 277 282 285 286 288 292 295 296 295 293 294 294 292 291 290 290 294 295 292 290 289 286 283 282 282 281 279 278 280 281 282 282 277 272 276 283 287 287 286 285 285 281 278 275 272 269 268 268
243 247 249 250 250 256 264 261 255 253 254 260 267 268 267 269 268 264 261 260 263 268 271 273 273 273 278 285 288 291 296 300 301 299 297 296 296 293 291 290 290 292 295 294 291 289 288 288 285 283 283 283 281 281 284 286 286 284 282 281 285 288 288 287 287 286 285 282 277 273 270 267 266 266
240 244 246 250 251 245 242 248 253 249 249 260 268 270 273 274 273 271 267 264 265 269 268 265 267 272 279 285 287 292 299 304 302 299 297 296 295 291 289 289 289 290 289 287 287 285 286 287 285 284 285 284 284 287 290 290 287 284 282 284 286 287 287 287 287 287 286 283 278 274 270 267 265 263
239 244 245 250 260 258 246 251 261 258 251 258 271 282 284 279 275 273 269 266 267 268 263 260 263 270 276 281 286 293 299 299 296 293 291 290 289 287 286 286 286 286 286 286 283 282 285 288 287 286 287 288 289 291 290 288 287 285 284 284 285 287 288 288 288 288 287 284 279 276 272 269 265 262
229 229 238 252 270 273 262 261 269 267 257 258 271 279 276 270 268 267 267 268 270 269 265 263 266 273 279 284 290 294 296 293 290 291 291 288 285 282 283 285 286 288 290 289 285 283 288 291 289 288 289 291 291 290 288 287 287 286 286 286 289 291 291 289 289 288 286 283 280 277 274 270 266 261
231 236 247 258 264 260 257 263 270 268 263 266 270 270 267 264 264 267 270 275 275 271 269 270 274 280 286 291 293 294 294 290 287 283 280 279 281 283 284 286 288 290 292 291 289 288 290 294 293 291 291 291 289 288 287 287 288 290 290 291 293 295 292 290 290 288 284 282 279 276 274 271 265 260
237 239 245 244 240 245 255 262 262 259 262 266 264 260 260 262 266 272 279 283 281 277 277 278 281 288 294 297 296 293 291 289 284 272 264 268 278 284 284 287 291 291 290 291 292 292 293 296 297 296 296 292 287 286 288 290 290 292 293 294 295 296 293 291 289 286 283 280 277 274 273 270 263 257
229 225 231 238 241 248 252 251 249 252 257 257 255 256 261 267 273 280 286 292 293 292 289 287 288 293 295 294 292 290 287 286 282 271 262 261 267 275 280 286 291 290 288 292 297 298 297 298 298 297 296 294 291 290 290 291 292 293 295 296 295 295 295 291 286 284 282 279 276 272 269 265 258 251
213 208 216 240 250 243 240 242 246 251 252 250 252 257 265 272 279 286 293 298 300 298 295 292 291 291 290 287 285 285 283 280 279 274 265 263 268 279 287 291 291 289 289 295 303 304 301 298 296 292 288 287 292 294 293 294 296 296 297 297 295 294 294 289 284 283 283 281 277 269 264 261 254 246
209 201 202 227 244 235 232 240 244 246 251 255 256 256 261 267 274 282 290 297 299 296 291 288 287 288 290 289 285 284 284 285 287 287 281 280 285 291 295 295 293 290 289 293 301 303 298 294 291 289 287 284 285 291 295 298 299 299 299 297 294 292 290 284 280 281 284 284 278 268 264 262 253 243
223 213 205 217 231 232 231 237 243 247 253 255 252 249 253 262 271 280 288 295 296 292 289 289 292 294 293 289 288 290 292 293 295 294 292 294 295 293 291 290 289 288 288 292 296 295 292 290 289 288 289 288 288 292 296 299 301 303 302 299 294 290 285 281 280 281 283 283 274 266 268 268 255 243
212 207 204 211 221 229 236 239 242 246 248 247 250 253 259 270 281 289 294 288 275 277 288 291 290 287 283 282 289 295 296 294 297 298 297 296 294 290 287 285 284 283 286 290 290 288 287 285 284 286 291 294 295 297 297 296 300 303 304 302 300 295 285 279 279 279 281 280 272 266 269 269 258 243
198 195 202 213 222 229 236 236 236 241 246 248 258 272 284 291 292 291 287 276 272 282 291 289 284 285 286 288 293 296 296 297 300 299 296 293 291 290 288 287 285 285 286 287 287 287 286 283 283 290 296 296 294 295 296 296 297 301 304 306 308 305 295 285 282 281 279 277 272 269 264 258 250 239
202 199 205 217 226 227 225 227 231 243 257 266 278 293 303 303 292 278 273 280 288 293 291 289 290 293 295 295 296 297 299 300 299 296 294 294 294 294 294 292 290 289 289 289 290 292 293 292 294 299 299 295 291 292 296 298 299 301 304 307 309 310 305 297 291 286 284 280 274 271 263 246 237 232
193 196 204 212 219 218 216 226 237 245 257 268 278 290 298 291 273 268 279 293 296 290 288 292 295 295 297 298 299 300 298 295 293 294 297 300 301 301 302 300 298 297 296 296 298 299 299 301 303 303 301 298 296 296 299 299 300 302 304 306 307 309 309 307 301 294 291 285 277 276 267 238 222 226
195 200 204 207 213 214 220 235 237 232 236 245 257 270 268 257 259 276 288 288 285 285 289 291 290 294 299 299 297 297 295 293 296 300 302 304 304 306 306 303 302 303 303 302 304 304 302 303 304 304 303 300 298 301 304 304 302 302 304 308 309 308 309 310 307 300 296 288 281 282 269 228 209 218
188 192 192 192 198 209 224 235 234 231 229 227 229 237 239 248 273 290 284 271 269 274 281 287 293 297 297 295 295 298 298 299 302 304 304 304 303 305 306 304 304 306 306 307 309 306 302 302 304 306 307 304 302 303 306 307 307 306 307 312 315 313 312 313 309 304 303 295 285 279 253 213 205 210
174 183 185 191 203 214 229 241 242 238 229 225 231 244 252 268 286 292 287 280 276 276 285 296 298 295 294 296 299 300 301 303 305 305 304 302 299 300 301 301 303 305 306 310 313 309 303 301 303 308 313 313 312 309 306 306 312 316 316 317 318 317 318 319 314 308 306 302 294 277 237 208 205 205
203 214 219 235 240 240 249 259 261 259 255 261 275 283 287 292 291 289 289 286 280 287 298 300 295 293 296 299 300 302 305 307 307 305 303 300 297 297 299 301 306 308 306 309 313 311 306 303 303 310 319 323 323 322 318 313 316 322 323 324 326 326 324 324 321 314 308 305 298 278 242 218 214 213
240 251 256 262 261 257 264 274 282 284 284 289 289 284 287 294 296 295 293 286 289 300 302 296 292 294 299 300 301 305 307 306 306 305 304 303 302 300 302 304 307 308 307 309 314 314 310 308 309 314 322 326 326 328 333 335 331 328 329 331 335 335 333 331 329 322 317 315 303 273 239 220 219 221
254 264 267 263 255 260 273 283 287 285 284 287 286 286 292 298 298 297 300 313 314 302 293 292 295 295 297 300 303 306 306 305 306 306 306 307 307 306 306 306 305 308 309 311 316 317 311 311 317 321 323 326 323 322 331 337 338 337 334 333 336 339 338 336 334 331 330 331 319 283 247 229 223 224
260 270 271 264 259 266 277 279 273 272 277 277 276 283 297 300 293 292 301 311 304 290 284 289 293 293 299 305 306 307 308 307 307 308 308 308 310 311 312 311 310 312 312 312 317 320 315 315 322 324 319 321 321 315 324 330 334 340 341 336 336 341 343 341 339 337 337 338 330 305 277 261 249 239
258 264 266 270 273 275 277 277 280 284 283 277 279 292 304 294 288 292 298 295 289 287 291 295 295 299 307 309 307 307 309 309 309 310 309 310 314 316 315 315 316 315 313 313 319 326 328 325 323 323 322 321 320 319 323 326 328 336 343 343 341 345 348 346 341 339 339 339 333 323 307 285 266 257
244 247 254 269 280 277 269 273 285 287 280 281 291 301 298 289 290 296 296 289 288 296 299 297 299 304 305 304 305 306 309 311 311 311 312 315 317 317 316 317 317 313 311 316 324 331 336 333 326 326 327 321 315 316 317 314 314 325 341 353 355 352 351 348 343 341 343 343 337 330 324 315 292 272
233 243 253 269 278 272 261 263 270 270 271 281 294 295 289 290 294 295 293 292 295 300 297 294 297 300 299 303 308 308 311 314 312 312 316 317 316 316 317 316 314 312 314 322 328 334 339 337 332 332 330 323 322 325 321 314 314 325 341 357 4 3 359 352 346 343 343 347 346 336 326 326 318 294
237 247 250 257 263 263 262 263 262 264 272 283 290 286 283 282 280 282 289 294 292 291 289 288 291 296 300 305 309 310 313 315 313 316 320 318 314 317 317 314 313 317 320 325 331 339 341 334 329 332 335 335 337 338 333 328 333 338 343 352 3 8 7 2 358 352 347 350 354 348 331 323 322 308
240 250 251 248 249 252 258 262 265 271 284 291 291 288 285 280 269 264 270 274 270 267 273 281 289 298 303 306 312 314 313 314 317 320 320 317 317 319 319 318 320 322 321 323 332 338 339 333 329 333 341 346 345 343 338 335 340 343 344 348 358 5 7 5 6 7 3 360 1 360 347 328 321 318
233 245 251 249 246 247 254 264 275 286 295 295 289 286 284 279 271 260 256 261 263 262 273 288 296 301 305 308 313 314 313 317 322 321 317 317 319 320 319 321 323 322 321 324 329 335 339 339 333 331 336 343 345 344 339 333 338 345 347 348 353 1 4 3 5 12 15 11 9 10 8 356 335 311
235 238 243 246 245 244 246 250 259 269 277 282 283 279 272 267 266 263 260 264 270 274 284 294 296 298 306 312 314 314 314 317 319 316 314 317 320 319 320 323 324 324 325 327 329 335 343 345 338 333 333 336 343 348 344 335 339 349 351 349 352 359 2 1 1 8 16 15 11 13 18 19 18 4
236 240 249 254 252 250 249 251 257 266 275 281 278 269 262 258 259 262 262 262 268 277 285 291 295 302 310 313 312 311 312 314 315 316 318 320 321 322 323 325 326 327 329 330 331 336 344 352 357 359 352 343 346 352 348 342 346 353 353 353 355 358 0 1 360 3 12 14 11 13 20 23 28 35
Height
835 835 835 835 836 836 835 836 836 836 836 836 836 837 837 838 838 837 836 834 831 831 830 830 829 830 831 831 832 832 832 832 832 831 831 830 829 828 827 826 825 825 824 824 823 822 822 821 821 820 819 818 817 816 815 814 814 813 812 811 810 809 808 808 807 806 806 806 806 806 807 807 808 809
835 835 834 834 834 834 834 834 834 834 834 834 835 836 836 836 836 836 836 834 831 830 830 829 829 828 829 829 829 829 830 829 829 828 828 827 826 826 824 823 823 822 821 821 820 819 819 819 818 817 817 816 815 814 813 812 811 810 809 808 807 807 806 805 804 804 803 802 802 802 803 803 804 804
834 834 834 834 833 833 833 832 833 832 833 833 833 834 833 833 833 832 833 832 830 830 829 828 828 828 827 827 827 827 827 827 826 826 825 824 824 823 822 821 820 819 818 817 816 816 816 816 815 815 814 813 812 811 810 809 808 807 806 805 805 804 803 802 802 801 800 800 799 799 799 799 799 800
832 832 832 832 832 832 831 831 832 832 832 832 832 832 832 831 831 830 830 829 827 827 828 827 827 826 826 825 825 825 824 824 824 823 822 822 821 820 819 818 816 815 815 814 813 813 812 812 812 811 811 810 809 808 807 806 805 804 803 802 802 801 800 799 798 797 797 796 796 795 795 795 795 796
830 830 830 830 830 830 830 830 830 830 830 830 830 830 830 829 829 829 828 827 826 825 825 825 825 824 824 823 822 822 821 821 821 820 820 819 818 818 816 815 813 812 811 810 810 810 809 809 808 808 807 806 805 804 804 803 802 801 800 799 798 797 797 796 795 794 793 793 792 792 791 791 791 791
828 828 828 828 828 828 828 828 829 829 829 828 827 828 828 828 827 828 827 826 825 824 823 823 822 821 821 820 820 819 819 818 818 817 817 816 816 815 814 812 811 810 809 807 807 807 806 805 804 804 803 802 801 800 799 799 798 797 796 795 794 793 793 792 791 790 789 789 788 788 787 787 787 787
826 826 826 826 826 826 826 826 826 827 827 826 826 826 826 826 826 827 827 826 825 824 822 821 820 819 819 818 817 817 816 816 815 814 813 813 812 812 811 809 808 807 806 805 805 804 802 801 800 799 798 798 797 796 795 794 793 792 792 791 790 789 788 788 787 786 786 785 784 784 783 783 783 782
823 824 824 824 824 824 824 824 824 824 825 825 825 825 825 825 825 825 825 826 826 825 822 820 818 817 817 816 815 815 814 814 813 812 811 810 809 808 807 806 805 804 803 803 802 800 799 797 796 795 794 793 793 792 791 790 789 788 787 786 785 784 784 783 782 782 781 780 780 779 779 779 778 778
821 821 822 822 822 822 822 822 822 822 823 823 823 824 824 824 824 823 823 823 824 823 821 819 817 816 815 814 813 813 812 811 810 810 808 807 806 805 804 803 802 801 800 799 798 796 795 793 792 791 790 789 788 787 786 785 784 783 782 781 780 779 779 778 777 777 776 776 775 775 774 774 773 773
819 819 820 821 821 821 821 821 821 821 821 821 822 822 823 822 822 821 821 821 821 820 819 817 815 814 813 812 811 810 810 809 808 807 806 804 803 802 800 800 798 797 796 795 794 792 791 789 788 787 785 784 783 782 781 780 779 778 777 776 775 774 774 773 772 772 771 771 771 770 769 769 769 768
817 818 818 819 819 819 819 820 820 820 820 819 820 820 821 821 820 820 820 819 819 817 816 814 813 812 811 810 808 807 807 807 806 805 803 801 799 798 797 796 796 795 793 791 790 788 787 785 784 782 781 780 778 777 776 774 773 772 771 770 769 769 768 768 767 767 766 766 766 765 764 764 763 763
815 816 816 817 817 818 818 818 818 818 818 817 817 819 820 820 819 818 818 817 816 815 813 812 810 809 809 808 806 805 804 804 804 803 801 798 796 795 794 794 793 792 790 788 786 785 783 781 779 778 776 775 774 772 771 769 768 766 765 765 764 763 763 763 763 762 761 761 760 760 759 758 758 757
813 814 814 815 815 815 815 816 816 816 816 816 816 817 818 818 817 816 815 815 813 812 811 809 808 807 806 805 804 803 802 802 801 800 799 796 794 793 791 791 790 789 787 785 783 782 781 779 776 775 773 771 770 768 766 764 763 761 760 760 759 758 758 758 758 757 756 755 754 753 753 752 751 751
812 812 812 813 813 813 813 814 814 814 814 814 814 815 815 815 814 813 813 812 811 810 808 807 806 805 804 803 802 801 800 799 798 797 796 794 792 791 789 787 787 786 784 782 780 779 778 776 773 771 769 767 766 764 761 759 759 758 757 756 755 754 753 753 753 752 751 749 748 747 746 745 745 745
810 810 811 811 811 811 811 812 811 811 811 811 811 812 812 812 812 811 810 808 807 807 805 804 804 803 801 800 800 798 797 797 796 795 794 792 790 789 786 784 783 783 782 780 777 775 775 773 771 768 766 763 761 759 757 755 754 753 752 751 750 749 748 747 747 746 744 743 741 739 739 738 738 738
807 808 808 809 809 809 808 809 808 808 808 808 808 808 808 808 808 807 806 805 804 804 803 802 802 801 799 798 797 796 795 795 794 793 792 790 788 787 785 782 780 780 780 778 774 771 770 770 767 764 762 759 757 754 752 750 749 747 746 745 744 743 742 741 740 739 737 735 733 732 731 731 731 731
804 805 805 806 806 806 806 806 806 806 806 805 805 805 804 804 804 804 803 802 802 802 801 800 798 798 797 796 795 795 794 794 793 791 790 788 787 785 783 780 778 777 777 776 771 767 766 766 764 760 757 755 752 750 747 746 744 742 741 740 738 737 736 734 733 731 729 727 725 724 723 723 723 723
802 803 803 803 803 804 804 804 804 804 804 803 802 802 801 800 800 800 801 800 800 799 798 797 795 795 795 794 793 793 793 792 791 790 788 787 785 783 781 779 776 774 773 773 769 764 762 763 760 755 753 751 748 745 743 741 739 737 736 734 732 730 729 727 724 722 720 718 717 716 715 715 715 716
800 801 801 801 802 803 803 803 802 802 802 801 800 800 799 799 798 798 798 797 797 796 795 794 793 793 793 792 791 791 791 790 789 788 786 785 783 781 778 776 774 771 770 770 767 760 758 759 756 751 749 747 743 741 739 736 734 732 730 728 727 725 722 719 716 714 712 710 708 707 707 707 707 707
797 798 798 799 800 801 802 802 801 800 799 798 797 797 797 798 796 795 795 794 794 793 792 791 791 790 789 789 788 788 788 787 786 785 784 783 781 779 776 773 770 768 766 766 764 758 754 755 752 748 746 744 740 737 735 731 729 727 725 723 721 718 715 712 708 706 704 702 700 699 699 699 699 699
794 794 795 795 795 797 799 800 799 798 797 795 794 795 795 795 794 793 792 791 790 789 788 788 787 786 786 786 785 785 785 784 784 783 782 780 778 776 773 769 767 765 763 762 761 756 752 751 749 745 743 741 737 733 729 727 725 722 720 717 714 711 707 704 701 698 696 694 693 692 691 691 691 692
791 792 792 791 792 794 796 797 797 796 795 793 793 793 793 793 792 790 790 788 787 786 785 785 785 784 783 782 782 782 781 781 781 780 778 777 775 773 770 767 764 762 759 759 758 754 750 749 748 744 739 736 733 729 726 723 720 717 714 710 707 703 700 696 693 691 688 687 686 684 684 683 684 685
789 790 790 790 791 793 794 795 795 794 793 792 792 792 792 791 789 788 787 786 785 785 784 783 782 782 781 780 779 779 778 777 776 775 773 772 771 770 767 763 761 758 755 755 755 752 749 748 747 744 739 732 728 725 722 718 715 712 708 704 699 695 692 689 685 683 681 679 677 677 676 677 678 679
787 787 787 787 789 791 792 793 793 792 791 790 791 791 790 789 787 786 785 785 784 783 782 781 781 780 779 778 777 776 775 773 771 770 769 768 768 766 763 760 759 755 752 753 754 751 749 747 745 743 739 733 725 720 716 712 709 707 703 699 693 688 684 681 678 675 673 671 670 670 669 670 672 673
784 785 785 785 786 789 790 791 791 790 789 789 789 790 789 787 786 785 784 783 782 781 780 779 778 777 777 776 775 773 771 769 768 767 767 766 765 764 761 759 758 754 751 752 753 751 748 746 742 739 736 731 724 718 712 706 703 701 697 694 689 683 678 675 672 669 668 665 664 663 663 663 665 666
782 783 783 783 785 787 788 789 788 788 788 788 788 788 787 786 785 784 783 782 781 780 779 778 777 776 775 774 772 770 769 768 767 767 766 765 764 763 761 759 757 754 751 750 751 750 747 743 740 736 733 728 721 716 709 701 696 694 691 688 684 678 673 670 666 663 661 660 658 657 656 656 657 658
781 781 781 781 783 785 786 786 787 787 787 787 787 786 786 785 784 782 781 780 779 778 777 776 776 775 774 772 770 768 768 767 767 766 765 764 762 760 759 757 755 752 750 748 748 747 745 741 737 734 731 726 719 713 707 699 692 688 685 681 677 673 668 665 661 658 655 654 652 651 650 649 650 651
779 779 779 779 781 783 784 785 785 786 786 786 785 785 784 783 782 781 780 779 777 776 775 774 773 772 771 769 768 767 767 766 765 764 763 761 760 758 756 754 752 750 748 746 744 743 741 738 734 731 728 724 718 710 703 696 690 686 681 675 670 667 664 660 657 653 651 649 647 646 644 643 643 645
776 776 777 778 780 782 783 783 784 784 784 784 784 783 783 782 781 780 778 777 776 775 774 772 771 770 769 768 768 767 766 765 764 762 761 758 757 755 753 751 749 747 745 743 741 739 737 735 732 728 724 720 715 709 702 695 688 683 680 674 668 663 660 657 653 649 647 644 642 641 639 637 637 639
774 775 776 778 779 780 781 781 782 781 781 782 782 781 781 780 779 779 777 776 776 775 773 772 771 769 768 768 767 766 765 763 762 760 758 756 754 753 751 748 746 744 742 740 738 736 735 732 730 726 722 717 713 708 702 695 686 680 677 674 668 661 657 653 649 646 643 640 638 636 634 633 632 633
773 774 776 777 778 779 779 779 779 779 779 779 778 778 777 777 777 776 776 776 775 774 773 771 770 769 768 767 766 764 763 761 760 758 757 755 753 751 749 746 744 741 739 737 736 734 732 730 727 724 720 715 710 705 700 694 686 678 674 671 668 662 656 652 647 643 640 637 634 631 629 629 629 630
772 774 774 775 776 777 777 777 776 777 777 776 775 775 775 775 774 774 774 774 774 773 771 770 769 768 767 766 764 763 761 759 758 757 755 753 752 750 747 745 742 739 737 735 733 731 730 727 725 722 718 713 708 703 697 691 684 678 673 669 666 661 656 651 646 641 637 634 630 627 625 625 626 627
771 772 772 773 774 774 774 774 774 774 773 773 772 773 772 772 773 772 772 771 771 771 770 769 768 767 766 764 763 761 759 758 756 755 754 752 750 748 746 743 740 738 736 733 731 729 727 725 722 719 715 711 706 701 695 689 683 678 674 669 663 658 654 650 644 639 635 632 628 625 624 623 623 624
769 769 769 770 770 771 771 770 769 769 769 769 770 771 771 771 770 770 770 769 769 769 769 768 767 766 764 763 761 760 758 757 755 754 752 750 748 746 743 741 738 737 735 732 729 727 725 722 719 715 712 708 703 699 695 689 683 677 673 669 663 657 652 648 643 638 634 631 627 624 622 621 621 622
767 767 767 767 767 768 767 766 766 766 766 767 768 768 768 769 768 768 768 768 768 768 768 767 765 764 763 762 760 759 757 756 754 752 750 748 746 744 741 739 737 735 733 730 728 726 723 720 716 713 709 704 700 695 691 687 683 678 672 668 663 657 652 647 642 637 632 627 624 622 620 619 619 620
766 765 765 765 765 765 765 764 765 766 766 767 767 766 765 766 768 768 768 767 768 768 767 765 764 763 761 760 759 757 756 755 753 751 749 747 745 742 740 738 735 733 731 728 726 724 721 718 715 712 709 705 700 694 688 684 682 678 673 668 663 657 652 646 641 636 631 626 622 619 618 618 617 617
765 765 765 765 764 763 763 763 765 765 765 766 766 764 764 767 768 768 767 767 767 766 765 764 763 761 760 759 758 756 755 753 752 750 747 745 743 741 739 736 734 732 729 726 724 722 720 717 715 713 710 706 702 696 689 683 680 678 674 669 664 658 653 647 641 635 631 627 624 621 619 617 615 614
764 763 764 764 763 762 762 763 764 764 765 765 763 763 765 767 768 767 767 766 765 764 763 762 761 760 759 758 757 756 754 752 751 749 746 744 742 740 738 735 733 731 727 724 722 720 719 716 714 712 710 706 702 697 691 684 679 677 675 671 666 660 654 649 644 639 633 628 625 623 621 618 614 613
763 762 762 762 761 761 763 764 765 765 765 764 762 762 764 766 767 766 766 765 764 763 763 762 760 759 759 758 756 755 753 751 750 747 745 743 741 740 738 735 732 730 726 722 720 718 717 715 713 711 709 706 703 699 694 687 682 678 675 672 667 661 656 650 646 642 637 631 625 620 617 614 612 610
762 761 760 761 761 762 763 764 765 765 764 763 762 762 764 766 767 766 765 764 763 763 762 761 760 759 758 756 755 754 752 750 749 746 744 743 741 739 737 735 732 728 724 721 719 717 716 714 712 711 708 705 702 698 694 689 684 679 674 671 667 663 658 653 648 644 640 635 630 623 618 614 610 608
760 760 760 761 762 763 763 763 764 763 762 761 760 762 764 765 766 766 764 763 763 762 762 760 759 758 757 755 754 753 751 749 748 746 744 742 740 738 736 733 730 727 723 720 719 717 716 713 712 710 707 704 700 696 692 688 683 678 674 670 666 663 659 655 652 648 644 639 635 629 623 619 613 608
759 759 760 761 762 762 762 763 762 761 760 760 760 760 762 764 764 764 763 762 762 761 760 759 758 757 756 754 753 752 750 749 747 745 743 741 739 736 734 732 729 726 723 721 718 717 715 713 711 708 706 703 700 697 693 688 684 680 675 670 666 662 659 656 653 651 648 644 640 635 629 624 619 612
758 758 759 760 760 761 761 761 761 760 760 760 760 761 762 763 763 761 761 760 760 759 759 758 757 756 755 754 753 751 750 748 746 744 743 740 738 736 733 731 729 726 723 720 718 716 714 712 710 708 705 703 700 698 694 690 686 682 677 672 667 663 660 657 654 652 649 647 644 640 636 632 626 619
756 757 758 758 759 759 759 760 760 760 759 759 760 761 762 762 761 760 759 759 758 758 758 757 756 755 754 753 752 751 749 747 746 744 741 739 737 735 733 730 728 726 723 720 717 715 713 711 709 707 705 703 701 698 695 691 688 684 680 675 670 665 661 657 654 651 648 646 644 641 637 634 629 622
755 756 756 757 757 757 758 758 758 758 758 758 759 760 760 760 759 758 758 757 757 757 757 756 755 754 754 753 751 750 748 747 745 743 741 738 736 734 732 730 727 725 723 720 717 715 712 710 708 706 705 703 701 698 696 693 690 686 682 677 672 668 664 660 657 653 649 646 644 641 637 633 627 621